Date String (YYYY-MM-DD hh:mm:ss) UTC,Instrument flags,Ambient pressure (hPa),Sample flow (lpm),Bypass flow (lpm),Sample temperature (°C),Ambient temperature (°C),ASC tube jacket temperature (°C),LED temperature (°C),Box temperature (°C),Sample RH (%),Span deviation,Mass concentration (μg/m³),Mass concentration (μg/m³),Mass concentration (μg/m³)
DateTimeUTC,F1_M11,P_M11,Q1_M11,Q2_M11,T1_M11,T2_M11,T3_M11,T4_M11,T5_M11,U1_M11,ZSPAN_M11,X0_M11,X2_M11,X1_M11
2022-04-10 14:00:00,,0815.4,4.99,0.00,23.1,22.1,00.0,32.1,24.8,09.2,0000.0,0011.42,0004.43,0002.97
2022-04-10 14:01:00,,0815.4,5.01,0.00,23.0,22.0,00.0,32.1,24.7,09.8,0000.0,0011.49,0004.46,0002.97
2022-04-10 14:02:00,,0815.5,5.00,0.00,23.0,22.0,00.0,32.1,24.7,09.9,0000.0,0011.65,0004.51,0002.99
2022-04-10 14:03:00,,0815.5,5.00,0.00,23.0,22.0,00.0,32.1,24.7,09.5,0000.0,0011.79,0004.58,0002.99
2022-04-10 14:04:00,,0815.8,5.00,0.00,22.9,21.9,00.0,32.1,24.7,09.9,0000.0,0011.51,0004.60,0002.98
2022-04-10 14:05:00,,0816.0,5.00,0.00,22.9,22.0,00.0,32.1,24.7,10.2,0000.0,0011.62,0004.66,0002.98
2022-04-10 14:06:00,,0815.9,5.00,0.00,22.9,22.0,00.0,32.0,24.7,10.7,0000.0,0011.63,0004.66,0002.97
2022-04-10 14:07:00,,0815.3,5.00,0.00,22.9,22.1,00.0,32.0,24.8,10.0,0000.0,0011.50,0004.65,0002.95
2022-04-10 14:08:00,,0815.3,5.00,0.00,23.0,22.2,00.0,32.0,24.8,09.5,0000.0,0011.17,0004.64,0002.93
2022-04-10 14:09:00,,0815.3,5.00,0.00,23.0,22.2,00.0,32.0,24.9,10.2,0000.0,0011.07,0004.62,0002.92
2022-04-10 14:10:00,,0815.3,5.01,0.00,23.0,22.3,00.0,32.0,24.9,10.6,0000.0,0010.65,0004.60,0002.90
2022-04-10 14:11:00,,0815.2,5.00,0.00,23.0,22.3,00.0,32.0,24.9,10.4,0000.0,0010.54,0004.59,0002.87
2022-04-10 14:12:00,,0815.2,5.00,0.00,23.1,22.4,00.0,32.0,24.9,09.7,0000.0,0010.61,0004.60,0002.87
2022-04-10 14:13:00,,0815.3,4.99,0.00,23.1,22.4,00.0,32.0,24.9,09.5,0000.0,0010.78,0004.59,0002.85
2022-04-10 14:14:00,,0815.2,5.00,0.00,23.1,22.4,00.0,32.0,25.0,09.2,0000.0,0010.37,0004.55,0002.83
2022-04-10 14:15:00,,0815.3,5.00,0.00,23.1,22.5,00.0,32.1,25.0,08.5,0000.0,0010.51,0004.53,0002.83
2022-04-10 14:16:00,,0815.2,5.00,0.00,23.2,22.5,00.0,32.1,25.0,08.4,0000.0,0010.87,0004.48,0002.82
2022-04-10 14:17:00,,0815.2,5.00,0.00,23.1,22.5,00.0,32.1,25.0,08.4,0000.0,0010.57,0004.40,0002.81
2022-04-10 14:18:00,,0815.2,5.00,0.00,23.2,22.5,00.0,32.1,25.0,08.4,0000.0,0010.83,0004.39,0002.81
2022-04-10 14:19:00,,0815.2,5.01,0.00,23.2,22.5,00.0,32.1,25.0,08.6,0000.0,0011.07,0004.37,0002.80
2022-04-10 14:20:00,,0815.2,4.99,0.00,23.2,22.5,00.0,32.1,25.0,08.9,0000.0,0011.14,0004.33,0002.80
2022-04-10 14:21:00,,0815.2,5.00,0.00,23.2,22.5,00.0,32.1,25.0,09.8,0000.0,0011.65,0004.34,0002.79
2022-04-10 14:22:00,,0815.2,5.00,0.00,23.2,22.5,00.0,32.1,25.0,08.6,0000.0,0011.85,0004.37,0002.80
2022-04-10 14:23:00,,0815.2,5.00,0.00,23.2,22.5,00.0,32.1,25.0,08.4,0000.0,0011.62,0004.30,0002.78
2022-04-10 14:24:00,,0815.2,5.00,0.00,23.1,22.4,00.0,32.1,24.9,08.4,0000.0,0011.23,0004.26,0002.77
2022-04-10 14:25:00,,0815.2,5.00,0.00,23.1,22.3,00.0,32.1,24.9,08.2,0000.0,0011.28,0004.25,0002.77
2022-04-10 14:26:00,,0815.2,5.01,0.00,23.1,22.3,00.0,32.1,24.9,08.2,0000.0,0010.90,0004.27,0002.77
2022-04-10 14:27:00,,0815.2,5.00,0.00,23.1,22.4,00.0,32.1,24.9,09.2,0000.0,0010.56,0004.31,0002.77
2022-04-10 14:28:00,,0815.4,5.00,0.00,23.1,22.4,00.0,32.1,24.9,09.0,0000.0,0010.75,0004.35,0002.78
2022-04-10 14:29:00,,0815.2,5.01,0.00,23.1,22.4,00.0,32.1,24.9,09.0,0000.0,0010.67,0004.38,0002.77
2022-04-10 14:30:00,,0815.2,5.01,0.00,23.1,22.3,00.0,32.1,24.9,08.4,0000.0,0010.40,0004.38,0002.79
2022-04-10 14:31:00,,0815.2,4.99,0.00,23.1,22.3,00.0,32.1,24.9,08.6,0000.0,0010.24,0004.40,0002.80
2022-04-10 14:32:00,,0815.2,5.00,0.00,23.1,22.3,00.0,32.1,24.9,09.1,0000.0,0009.81,0004.37,0002.81
2022-04-10 14:33:00,,0815.2,5.00,0.00,23.1,22.3,00.0,32.1,24.9,08.6,0000.0,0009.90,0004.37,0002.81
2022-04-10 14:34:00,,0815.3,5.00,0.00,23.1,22.3,00.0,32.1,24.9,09.5,0000.0,0010.00,0004.42,0002.82
2022-04-10 14:35:00,,0815.3,4.99,0.00,23.1,22.3,00.0,32.1,24.9,08.6,0000.0,0010.00,0004.41,0002.80
2022-04-10 14:36:00,,0815.1,5.00,0.00,23.1,22.4,00.0,32.1,24.9,08.3,0000.0,0010.02,0004.36,0002.79
2022-04-10 14:37:00,,0815.2,5.00,0.00,23.1,22.4,00.0,32.1,24.9,08.1,0000.0,0010.21,0004.36,0002.77
2022-04-10 14:38:00,,0815.2,5.00,0.00,23.2,22.4,00.0,32.1,25.0,08.1,0000.0,0010.47,0004.37,0002.77
2022-04-10 14:39:00,,0815.2,5.00,0.00,23.2,22.4,00.0,32.1,25.0,08.9,0000.0,0010.69,0004.38,0002.77
2022-04-10 14:40:00,,0815.1,5.00,0.00,23.2,22.4,00.0,32.1,25.0,09.1,0000.0,0010.32,0004.33,0002.75
2022-04-10 14:41:00,,0815.1,5.00,0.00,23.2,22.4,00.0,32.1,25.0,08.9,0000.0,0010.25,0004.34,0002.73
2022-04-10 14:42:00,,0815.0,4.99,0.00,23.2,22.5,00.0,32.1,25.0,08.9,0000.0,0010.44,0004.38,0002.72
2022-04-10 14:43:00,,0815.0,5.02,0.00,23.2,22.5,00.0,32.1,25.0,09.2,0000.0,0011.21,0004.44,0002.71
2022-04-10 14:44:00,,0815.0,5.00,0.00,23.2,22.5,00.0,32.2,25.0,08.6,0000.0,0011.45,0004.47,0002.71
2022-04-10 14:45:00,,0814.9,5.01,0.00,23.2,22.5,00.0,32.2,25.0,09.0,0000.0,0011.48,0004.50,0002.69
2022-04-10 14:46:00,,0814.9,4.99,0.00,23.3,22.5,00.0,32.2,25.0,08.9,0000.0,0011.70,0004.59,0002.71
2022-04-10 14:47:00,,0814.9,5.00,0.00,23.3,22.5,00.0,32.2,25.1,08.9,0000.0,0011.72,0004.62,0002.73
2022-04-10 14:48:00,,0814.9,5.00,0.00,23.3,22.5,00.0,32.2,25.1,08.7,0000.0,0012.07,0004.64,0002.72
2022-04-10 14:49:00,,0814.9,5.00,0.00,23.3,22.5,00.0,32.2,25.1,08.2,0000.0,0012.04,0004.63,0002.72
2022-04-10 14:50:00,,0814.8,5.00,0.00,23.3,22.4,00.0,32.2,25.0,08.6,0000.0,0011.51,0004.53,0002.70
2022-04-10 14:51:00,,0814.9,4.99,0.00,23.3,22.4,00.0,32.2,25.0,09.5,0000.0,0011.60,0004.54,0002.70
2022-04-10 14:52:00,,0814.8,4.99,0.00,23.3,22.4,00.0,32.2,25.1,09.1,0000.0,0012.11,0004.60,0002.70
2022-04-10 14:53:00,,0814.9,5.00,0.00,23.3,22.4,00.0,32.2,25.1,08.8,0000.0,0012.63,0004.58,0002.68
2022-04-10 14:54:00,,0814.8,5.00,0.00,23.3,22.4,00.0,32.2,25.0,09.0,0000.0,0012.06,0004.59,0002.68
2022-04-10 14:55:00,,0814.9,5.02,0.00,23.3,22.3,00.0,32.2,24.9,08.9,0000.0,0011.64,0004.51,0002.67
2022-04-10 14:56:00,,0814.9,5.00,0.00,23.3,22.3,00.0,32.2,24.9,08.7,0000.0,0012.52,0004.44,0002.67
2022-04-10 14:57:00,,0814.8,5.00,0.00,23.3,22.3,00.0,32.2,25.0,08.2,0000.0,0012.92,0004.37,0002.65
2022-04-10 14:58:00,,0814.8,5.00,0.00,23.3,22.2,00.0,32.2,24.9,08.8,0000.0,0013.02,0004.41,0002.62
2022-04-10 14:59:00,,0814.9,4.99,0.00,23.3,22.2,00.0,32.3,25.0,08.7,0000.0,0012.47,0004.42,0002.62
